ORBCOMM FM35 [+]

Last updated on Fri Dec 29 2023 00:02:54 GMT+0000 (Coordinated Universal Time)

1 25985U 99065F 23362.10073815 .00001702 00000+0 64580-3 0 9994 2 25985 45.0398 111.7425 0004405 226.9624 133.0855 14.34659366257786

Satellite not in orbit

ORBCOMM FM35 [+]